Location: Namasale
(1.5000°N, 32.6167°E)
Time: 17:27:12
(UTC+00:00)

Courier 1B - Pass Details

Date: 19 April 2021
Orbit: 962 x 1209 km, 28.3° (Epoch: 18 May)

Event Time Altitude Azimuth Distance (km) Brightness Sun altitude
Rises 08:48:16 0° 266° (W) 3,842 10.5 72.1°
Reaches altitude 10° 08:51:34 10° 279° (W) 2,842 9.9 72.8°
Maximum altitude 08:57:07 26° 333° (NNW) 1,874 9.5 73.9°
Drops below altitude 10° 09:02:27 10° 27° (NNE) 2,720 10.2 74.9°
Sets 09:05:32 0° 40° (NE) 3,645 10.7 75.5°
